Location: ??????
(55.7522°N, 37.6156°E)
Time: 17:43:46
(UTC+00:00)

SL-16 R/B - Pass Details

Date: 14 June 2025
Orbit: 841 x 847 km, 71.0° (Epoch: 12 July)

Event Time Altitude Azimuth Distance (km) Brightness Sun altitude
Rises 19:46:36 0° 323° (NW) 3,410 7.3 -7.9°
Reaches altitude 10° 19:49:11 10° 317° (NW) 2,472 6.0 -8.1°
Maximum altitude 19:54:25 40° 249° (WSW) 1,229 3.1 -8.4°
Drops below altitude 10° 19:59:38 10° 182° (S) 2,460 4.0 -8.6°
Enters shadow 19:59:58 - 181° (S) 2,581 4.1 -8.7°
